ABS-2A (MONGOLSAT-1) (41588 NORAD) Tracking and Keplerian Element Data

This shows tracking and keplerian element data for the satellite.

Feedback or suggestion? Click here.




ElementValue
Catalog41588
NameABS-2A (MONGOLSAT-1)
Epoch Orbit989
Epoch Day51.80221823
Epoch Year2019
RAAN121.1413
Inclination0.0092
Eccentricity0.000206
Argument of Perigee160.7882
Mean Anonmoly231.9762
Mean Motion1.00271208
Decay Rate-1.06E-06
L11 41588U 16038A 19051.80221823 -.00000106 00000-0 00000+0 0 9993
L22 41588 0.0092 121.1413 0002060 160.7882 231.9762 1.00271208 9899

Live tracking and technical data element details for ABS-2A (MONGOLSAT-1) (NORAD 41588). ABS-2A (MONGOLSAT-1) can be tracked NOW for your location showing map with azimuth and elevation plus other details from your city location.

Track the satellite on the map from your city or location and see movement details for azimuth, elevation, latitude, longitude, range, height, and movement on the map or in text.







IsCatalogInMostPopularTable: catalog: 41588, numindb: 194
Update: records affected: 1



GetName: 41588 ABS-2A (MONGOLSAT-1)

Hit Count: updated at: Thu, 21 Feb 2019 11:23:51 GMT